Location: Newark
(44.4156°N, 12.1972°E)
Time: 00:20:54
(UTC+00:00)

STARLINK-1070 - Pass Details

Date: 31 January 2020
Orbit: 349 x 351 km, 53.0° (Epoch: 17 February)

Event Time Altitude Azimuth Distance (km) Brightness Sun altitude
Rises 18:24:09 0° 296° (WNW) 2,173 7.7 -22.6°
Reaches altitude 10° 18:26:20 10° 283° (WNW) 1,326 6.6 -23.0°
Enters shadow 18:28:36 26° 234° (SW) 751 4.8 -23.4°
